Regional Weather Roundup
Issued by NWS

Home | Current Version | Previous Version | Graphics & Text | Print | Product List | Glossary On
Versions: 1 2 3 4 5 6 7 8 9 10 11 12 13 14 15 16 17 18 19 20 21 22 23 24 25 26 27 28 29 30 31 32 33 34 35 36 37 38 39 40 41 42 43 44 45 46 47 48 49 50
000
ASUS43 KMKX 121711
RWRWI

WISCONSIN REGIONAL WEATHER ROUNDUP
NATIONAL WEATHER SERVICE MILWAUKEE/SULLIVAN WI
1100 AM CST TUE DEC 12 2017

NOTE: "FAIR" INDICATES FEW OR NO CLOUDS BELOW 12,000 FEET WITH NO
SIGNIFICANT WEATHER AND/OR OBSTRUCTIONS TO VISIBILITY.

WIZ001-002-006>008-014>016-023>028-121800-
NORTHWEST WISCONSIN

CITY           SKY/WX    TMP DP  RH WIND       PRES   REMARKS
SUPERIOR ARPT  CLOUDY     8   1  72 SW6       30.14F WCI  -2
ASHLAND        PTSUNNY   11   2  67 W9        30.11F WCI  -2
HAYWARD        CLOUDY     7   0  73 W6        30.09F WCI  -3
SIREN          CLOUDY     8   2  75 SW3       30.14F
CUMBERLAND     CLOUDY     9   1  72 NW6       30.10F WCI  -1
RICE LAKE      CLOUDY     9   2  75 CALM      30.13F
CHETEK         CLOUDY     8   2  75 W3        30.13F
LADYSMITH      CLOUDY     9   0  67 NW5       30.10F WCI   1
EAU CLAIRE     CLOUDY    10   1  67 W6        30.14F WCI   0
MENOMONIE      CLOUDY    11   2  69 W6        30.15F WCI   1
NEW RICHMOND   CLOUDY    10   1  66 NW5       30.15F WCI   2
OSCEOLA        CLOUDY    10   2  72 SW3       30.19F
$$

WIZ003>005-009-010-017-018-121800-
NORTH CENTRAL WISCONSIN

CITY           SKY/WX    TMP DP  RH WIND       PRES   REMARKS
MANITOWISH WTR CLOUDY     7   2  78 W9        30.00S HAZE    WCI  -6
ARBOR VITAE    CLOUDY    11   4  74 NW10      29.99F WCI  -2
WOODRUFF       CLOUDY    11   4  74 NW10      29.99F WCI  -2
RHINELANDER    PTSUNNY   10   2  69 VRB6      29.99F WCI   0
EAGLE RIVER    CLOUDY    10   0  62 NW13G22   29.97S WCI  -5
LAND O LAKES   CLOUDY    11   3  70 NW12      29.98S HAZE    WCI  -3
PHILLIPS       CLOUDY     6  -1  72 W3        30.04F
TOMAHAWK       PTSUNNY   10   0  66 NW8       30.03F WCI  -3
MEDFORD        SUNNY      7  -1  69 NW9       30.04F WCI  -7
MERRILL        MOSUNNY   11   1  62 N7        30.04F WCI   1
$$

WIZ029-030-035-036-043>047-121800-
CENTRAL WISCONSIN

CITY           SKY/WX    TMP DP  RH WIND       PRES   REMARKS
WAUSAU         SUNNY     12   0  58 NW8       30.03F WCI   0
MOSINEE        MOSUNNY   10   3  72 NW10      30.06S WCI  -3
MARSHFIELD     SUNNY      9   1  70 NW13      30.06F WCI  -7
STEVENS POINT  PTSUNNY   11   1  64 W3        30.07F
WAUPACA        MOSUNNY   18   3  53 NW9       30.07F WCI   6
WAUTOMA        MOSUNNY   14   4  64 W15       30.09F WCI  -1
WISC RAPIDS    SUNNY     12   2  64 NW12      30.10F WCI  -2
CAMP DOUGLAS   MOSUNNY   14   1  57 NW13      30.12F WCI   0
$$

WIZ011>013-019>022-031-037>040-048>050-121800-
NORTHEAST WISCONSIN

CITY           SKY/WX    TMP DP  RH WIND       PRES   REMARKS
ANTIGO         CLOUDY    10   2  71 NW10      29.99F WCI  -4
SHAWANO        CLOUDY    19   6  59 NW8       30.04F WCI   8
OCONTO         CLOUDY    14   5  68 N7        30.05S WCI   4
STURGEON BAY   PTSUNNY   15   3  59 NW20G28   30.01F WCI  -2
GREEN BAY      CLOUDY    18   5  57 N15G24    30.04F WCI   4
MANITOWOC      CLOUDY    17   5  59 NW17      30.04F WCI   1
APPLETON       CLOUDY    16   1  53 NW14      30.03F WCI   1
CLINTONVILLE   NOT AVBL
OSHKOSH        CLOUDY    17   5  59 NW14      30.05F WCI   3
$$

WIZ032>034-041-042-053>061-121800-
SOUTHWEST WISCONSIN

CITY           SKY/WX    TMP DP  RH WIND       PRES   REMARKS
LA CROSSE      SUNNY     17   4  56 N7        30.17F WCI   8
SPARTA         MOSUNNY   14   4  63 W5        30.15F WCI   7
VIROQUA        SUNNY     14   5  68 NW8       30.11F WCI   3
BOSCOBEL       SUNNY     19   4  51 NW7       30.17F WCI  10
PRAIRIE DU CHI MOSUNNY   18   5  56 W7        30.18F WCI   9
PLATTEVILLE    SUNNY     18   9  69 W9        30.14F WCI   7
$$

WIZ056-057-062-063-064-067-068-121800-
SOUTH CENTRAL WISCONSIN

CITY           SKY/WX    TMP DP  RH WIND       PRES   REMARKS
REEDSBURG      SUNNY     15   1  53 NW10      30.12S WCI   2
BARABOO/DELLS  SUNNY     15   2  56 NW7G18    30.10F WCI   5
LONE ROCK      MOSUNNY   16   5  62 NW10      30.15F WCI   4
MINERAL POINT  SUNNY     19   5  53 NW9       30.10F WCI   9
MADISON        MOSUNNY   16   4  59 NW12      30.10F WCI   3
MIDDLETON      MOSUNNY   20   7  58 NW13      30.10F WCI   7
WATERTOWN      PTSUNNY   17   6  60 N10       30.08F WCI   5
MONROE         SUNNY     19   5  53 NW10      30.09F WCI   8
JANESVILLE     MOSUNNY   21   7  53 NW13      30.10F WCI   9
$$

WIZ051-052-058>065-066-070>072-121800-
SOUTHEAST WISCONSIN

CITY           SKY/WX    TMP DP  RH WIND       PRES   REMARKS
MILWAUKEE      PTSUNNY   20   5  52 NW15      30.06F WCI   6
WAUKESHA       PTSUNNY   16   3  57 NW14      30.07F WCI   1
MILWAUKEE/TIMM PTSUNNY   18   1  49 NW14G23   30.07F WCI   4
RACINE         MOSUNNY   20   4  50 NW16G25   30.07F WCI   6
BURLINGTON     MOSUNNY   33  25  71 NW16      30.08F WCI  23
KENOSHA        MOSUNNY   20   4  50 NW17G23   30.07F WCI   5
FOND DU LAC    CLOUDY    18   4  54 NW14      30.06F WCI   4
SHEBOYGAN      CLOUDY    18   6  59 NW14      30.03F WCI   4
WEST BEND      CLOUDY    18   5  57 W16G22    30.04F WCI   3
JUNEAU         PTSUNNY   15   3  60 NW8       30.08F WCI   4
$$

LSZ147-162-121800-
LAKE SUPERIOR

STATION/POSITION TIME  TEMP    WIND        PRES    WAVE
                       AIR SEA DIR/SP/G            HT/PER
                 (UTC) (F)     (DEG/KT/KT) (MB)    (FT/S)
DEVILS ISLAND    1700   10     300/ 11/ 13 1020.9F
SAXON HARBOR     1640   11                 1019.3F
$$

LMZ867-665-643>646-121800-
LAKE MICHIGAN

STATION/POSITION TIME  TEMP    WIND        PRES    WAVE
                       AIR SEA DIR/SP/G            HT/PER
                 (UTC) (F)     (DEG/KT/KT) (MB)    (FT/S)
NORTHPORT PIER   1634   17     320/ 23     1015.6S
KEWAUNEE LAKESHO 1642   16     320/ 10/ 18 1016.3F
SHEBOYGAN LAKESH 1700   17     320/ 21/ 24 1018.1F
PORT WASHINGTON  1640   18     320/ 12/ 16 1019.0F
MILWAUKEE LAKESH 1650   18     310/ 10/ 13   N/A
KENOSHA   LAKESH 1700   18     300/ 17/ 22 1017.9
$$

TC  - TEMPERATURE IN CELSIUS
VSB - VISIBILITY IN STATUTE MILES
WCI - WIND CHILL INDEX
HX  - HEAT INDEX





USA.gov is the U.S. government's official web portal to all federal, state and local government web resources and services.